Location: ????
(33.1659°N, 35.6604°E)
Time: 06:42:18
(UTC+00:00)

Lacrosse 4 Rocket - Pass Details

Date: 20 September 2019
Orbit: 544 x 615 km, 68.0° (Epoch: 19 October)

Event Time Altitude Azimuth Distance (km) Brightness Sun altitude
Rises 16:23:12 0° 312° (NW) 2,707 5.9 -10.4°
Reaches altitude 10° 16:26:18 10° 287° (WNW) 1,809 5.5 -11.0°
Maximum altitude 16:28:24 14° 255° (WSW) 1,569 4.7 -11.4°
Drops below altitude 10° 16:30:31 10° 223° (SW) 1,807 4.4 -11.9°
Sets 16:33:36 0° 198° (SSW) 2,702 5.0 -12.5°
